sat.trackr.live / text

‹ back to catalog

STARLINK-4185

NORAD 53139 · 2022-083H

PAYLOAD ACTIVE UNKNOWN

§ Identity

Operator
Country
US
Launch date
2022-07-17
Launch site
AFETR
Launch vehicle
Mass (kg)
RCS (m²)

Purposes: comms

External: N2YO · Heavens-Above · Gunter

§ Orbital elements

Epoch: 2026-09-19T18:47:17.214432Z

Period
93.85 min
Inclination
53.1615°
Eccentricity
0.0001080
Mean motion
15.34391509 rev/d
Perigee alt
462.0 km
Apogee alt
463.5 km
Semi-major
6,840.9 km
B*
4.0746e-5
RAAN
12.7481°
Arg perigee
78.6891°
Mean anomaly
281.4233°
Rev number
23,065

§ Raw data

STARLINK-41851 53139U 22083H   26262.78283813  .00001000  00000+0  40746-4 0  99992 53139  53.1615  12.7481 0001080  78.6891 281.4233 15.34391509230654

JSON: /api/v1/satellites/53139 · /tle

For live sub-satellite position, see the globe view (requires WebGL).

§ Visibility from observer

Set your observer location to see the next 7 days of passes ≥ 10°. The values pass through the URL so the page stays shareable.

No JS? Fill the form by hand. The geolocation button needs JavaScript.